Hourly Weather Abano Terme

Today, 26 October, Monday

Time Temperature Precipitation Wind Pressure Humidity
00:00 +16°C° 0 mm 1 mps 758 mmHg 79%
01:00 +16°C° 0 mm 1 mps 758 mmHg 79%
02:00 +15°C° 0 mm 1 mps 757 mmHg 80%
03:00 +15°C° 0 mm 1 mps 757 mmHg 81%
04:00 +15°C° 0 mm 1 mps 757 mmHg 82%
05:00 +15°C° 0 mm 1 mps 756 mmHg 82%
06:00 +15°C° 0 mm 1 mps 756 mmHg 82%
07:00 +14°C° 0 mm 1 mps 756 mmHg 82%
08:00 +15°C° 0 mm 2 mps 756 mmHg 80%
09:00 +16°C° 0 mm 2 mps 756 mmHg 77%
10:00 +17°C° 0 mm 2 mps 756 mmHg 75%
11:00 +17°C° 0.1 mm 2 mps 755 mmHg 75%
12:00 +17°C° 0.1 mm 3 mps 755 mmHg 75%
13:00 +18°C° 0.1 mm 3 mps 755 mmHg 75%
14:00 +17°C° 0.3 mm 3 mps 754 mmHg 77%
15:00 +17°C° 0.3 mm 3 mps 754 mmHg 79%
16:00 +17°C° 0.3 mm 3 mps 753 mmHg 81%
17:00 +16°C° 1.1 mm 2 mps 753 mmHg 83%
18:00 +16°C° 1.1 mm 2 mps 754 mmHg 86%
19:00 +16°C° 1.1 mm 2 mps 754 mmHg 89%
20:00 +16°C° 0.7 mm 2 mps 754 mmHg 88%
21:00 +16°C° 0.7 mm 2 mps 754 mmHg 88%
22:00 +16°C° 0.7 mm 1 mps 754 mmHg 88%
23:00 +15°C° 0.3 mm 1 mps 754 mmHg 87%

Tomorrow, 27 October, Tuesday

Time Temperature Precipitation Wind Pressure Humidity
00:00 +15°C° 0.3 mm 1 mps 754 mmHg 87%
01:00 +15°C° 0.3 mm 1 mps 754 mmHg 86%
02:00 +15°C° 0.7 mm 1 mps 753 mmHg 87%
03:00 +15°C° 0.7 mm 1 mps 753 mmHg 89%
04:00 +14°C° 0.7 mm 1 mps 753 mmHg 90%
05:00 +14°C° 0.6 mm 1 mps 753 mmHg 91%
06:00 +14°C° 0.6 mm 1 mps 753 mmHg 91%
07:00 +14°C° 0.6 mm 1 mps 753 mmHg 92%
08:00 +15°C° 0.1 mm 1 mps 754 mmHg 86%
09:00 +16°C° 0.1 mm 1 mps 755 mmHg 81%
10:00 +17°C° 0.1 mm 2 mps 755 mmHg 76%
11:00 +17°C° 0.1 mm 2 mps 755 mmHg 70%
12:00 +18°C° 0.1 mm 2 mps 756 mmHg 64%
13:00 +19°C° 0.1 mm 3 mps 756 mmHg 58%
14:00 +18°C° 0 mm 2 mps 756 mmHg 59%
15:00 +18°C° 0 mm 2 mps 756 mmHg 60%
16:00 +18°C° 0 mm 2 mps 756 mmHg 61%
17:00 +17°C° 0.1 mm 2 mps 757 mmHg 66%
18:00 +16°C° 0.1 mm 1 mps 758 mmHg 71%
19:00 +14°C° 0.1 mm 1 mps 758 mmHg 75%
20:00 +14°C° 0 mm 1 mps 759 mmHg 77%
21:00 +14°C° 0 mm 1 mps 759 mmHg 78%
22:00 +13°C° 0 mm 1 mps 760 mmHg 80%
23:00 +13°C° 0 mm 1 mps 760 mmHg 81%

Day after tomorrow, 28 October, Wednesday

Time Temperature Precipitation Wind Pressure Humidity
00:00 +13°C° 0 mm 1 mps 760 mmHg 81%
01:00 +12°C° 0 mm 1 mps 760 mmHg 82%
02:00 +12°C° 0 mm 1 mps 760 mmHg 82%
03:00 +12°C° 0 mm 1 mps 760 mmHg 82%
04:00 +12°C° 0 mm 1 mps 760 mmHg 82%
05:00 +12°C° 0 mm 1 mps 760 mmHg 82%
06:00 +11°C° 0 mm 1 mps 760 mmHg 82%
07:00 +11°C° 0 mm 1 mps 761 mmHg 82%
08:00 +12°C° 0 mm 1 mps 761 mmHg 76%
09:00 +14°C° 0 mm 1 mps 761 mmHg 71%
10:00 +15°C° 0 mm 1 mps 761 mmHg 66%
11:00 +16°C° 0 mm 1 mps 761 mmHg 64%
12:00 +18°C° 0 mm 1 mps 761 mmHg 61%
13:00 +19°C° 0 mm 1 mps 761 mmHg 58%
14:00 +18°C° 0 mm 1 mps 760 mmHg 60%
15:00 +18°C° 0 mm 1 mps 760 mmHg 61%
16:00 +18°C° 0 mm 1 mps 760 mmHg 63%
17:00 +16°C° 0 mm 1 mps 761 mmHg 66%
18:00 +15°C° 0 mm 1 mps 761 mmHg 69%
19:00 +14°C° 0 mm 1 mps 762 mmHg 71%
20:00 +14°C° 0 mm 1 mps 762 mmHg 73%
21:00 +13°C° 0 mm 1 mps 762 mmHg 74%
22:00 +13°C° 0 mm 1 mps 763 mmHg 75%
23:00 +13°C° 0 mm 1 mps 763 mmHg 76%

29 October, Thursday

Time Temperature Precipitation Wind Pressure Humidity
00:00 +12°C° 0 mm 1 mps 763 mmHg 77%
01:00 +12°C° 0 mm 1 mps 763 mmHg 78%
02:00 +12°C° 0 mm 1 mps 763 mmHg 80%
03:00 +11°C° 0 mm 1 mps 763 mmHg 81%
04:00 +11°C° 0 mm 1 mps 763 mmHg 82%
05:00 +11°C° 0 mm 1 mps 763 mmHg 83%
06:00 +11°C° 0 mm 1 mps 763 mmHg 83%
07:00 +10°C° 0 mm 1 mps 764 mmHg 83%
08:00 +12°C° 0 mm 1 mps 764 mmHg 79%
09:00 +13°C° 0 mm 1 mps 764 mmHg 74%
10:00 +14°C° 0 mm 1 mps 764 mmHg 70%
11:00 +15°C° 0 mm 1 mps 764 mmHg 66%
12:00 +16°C° 0 mm 1 mps 764 mmHg 63%
13:00 +16°C° 0 mm 0 mps 764 mmHg 59%
14:00 +16°C° 0 mm 0 mps 764 mmHg 60%
15:00 +16°C° 0 mm 0 mps 764 mmHg 61%
16:00 +16°C° 0 mm 0 mps 765 mmHg 61%
17:00 +15°C° 0 mm 0 mps 765 mmHg 65%
18:00 +14°C° 0 mm 0 mps 766 mmHg 68%
19:00 +13°C° 0 mm 0 mps 766 mmHg 72%
20:00 +13°C° 0 mm 0 mps 767 mmHg 73%
21:00 +13°C° 0 mm 1 mps 767 mmHg 74%
22:00 +13°C° 0 mm 1 mps 768 mmHg 75%
23:00 +13°C° 0 mm 1 mps 768 mmHg 76%

30 October, Friday

Time Temperature Precipitation Wind Pressure Humidity
00:00 +11°C° 0 mm 0 mps 768 mmHg 76%
01:00 +11°C° 0 mm 0 mps 768 mmHg 77%
02:00 +11°C° 0 mm 0 mps 768 mmHg 77%
03:00 +11°C° 0 mm 0 mps 768 mmHg 76%
04:00 +11°C° 0 mm 0 mps 768 mmHg 76%
05:00 +11°C° 0 mm 0 mps 768 mmHg 77%
06:00 +11°C° 0 mm 0 mps 768 mmHg 77%
07:00 +10°C° 0 mm 0 mps 768 mmHg 77%
08:00 +12°C° 0 mm 0 mps 768 mmHg 72%
09:00 +14°C° 0 mm 1 mps 768 mmHg 66%
10:00 +16°C° 0 mm 1 mps 768 mmHg 61%
11:00 +18°C° 0 mm 1 mps 768 mmHg 58%
12:00 +18°C° 0 mm 1 mps 768 mmHg 54%
13:00 +19°C° 0 mm 1 mps 768 mmHg 50%
14:00 +19°C° 0 mm 1 mps 768 mmHg 52%
15:00 +19°C° 0 mm 1 mps 768 mmHg 54%
16:00 +19°C° 0 mm 1 mps 768 mmHg 56%
17:00 +18°C° 0 mm 1 mps 768 mmHg 59%
18:00 +16°C° 0 mm 1 mps 768 mmHg 62%
19:00 +14°C° 0 mm 0 mps 768 mmHg 65%
20:00 +13°C° 0 mm 0 mps 768 mmHg 67%
21:00 +13°C° 0 mm 0 mps 768 mmHg 69%
22:00 +12°C° 0 mm 0 mps 768 mmHg 70%
23:00 +12°C° 0 mm 0 mps 768 mmHg 71%

31 October, Saturday

Time Temperature Precipitation Wind Pressure Humidity
00:00 +12°C° 0 mm 0 mps 768 mmHg 73%
01:00 +11°C° 0 mm 0 mps 768 mmHg 74%
02:00 +11°C° 0 mm 0 mps 767 mmHg 75%
03:00 +11°C° 0 mm 0 mps 767 mmHg 76%
04:00 +12°C° 0 mm 1 mps 767 mmHg 77%
05:00 +10°C° 0 mm 0 mps 767 mmHg 78%
06:00 +10°C° 0 mm 0 mps 767 mmHg 79%
07:00 +10°C° 0 mm 0 mps 767 mmHg 80%
Show more